#timestamp,LO_Frequency,Hit,StdDev 
1693328415.3,286046997.2,N
1693328435.1,286046999.4,N
1693328436.0,286046999.4,N
1693328455.8,286046998.4,N
1693328475.7,286046996.7,N
1693328495.5,286046996.7,N
1693328515.3,286046999.5,N
1693328535.2,286046999.6,N
1693328555.0,286046999.3,N
1693328555.9,286046999.3,N
1693328575.7,286046999.4,N
1693328595.6,286047000.4,N
1693328615.4,286047004.3,Y
1693328635.2,286047005.3,P
1693328655.1,286047005.3,N
1693328656.0,286047005.3,N
1693328675.8,286047003.2,N
1693328695.7,286047003.0,N
1693328715.5,286047005.9,N
1693328735.3,286047001.5,N
1693328755.2,286046999.9,N
1693328775.9,286047000.0,N
1693328795.7,286047000.4,N
1693328815.6,286046998.1,N
1693328835.4,286046998.5,N
1693328855.2,286047000.1,N
1693328875.1,286047002.5,N
1693328876.0,286047002.5,N
1693328895.8,286047002.5,N
1693328915.6,286047001.9,N
1693328935.5,286047002.0,N
1693328955.3,286047002.3,N
1693328975.1,286046999.7,N
1693328995.9,286047002.2,N
1693329015.7,286047002.3,N
1693329035.5,286047011.9,Y
1693329055.4,286047002.4,P
1693329075.2,286047000.7,N
1693329095.0,286047002.3,P
1693329095.9,286047002.3,Y
1693329115.8,286047002.4,P
1693329135.6,286046999.8,N
1693329155.4,286046999.9,N
1693329175.3,286047002.2,N
1693329195.1,286047002.8,N
1693329215.8,286047002.5,N
1693329235.7,286047002.6,N
1693329255.5,286047001.7,N
1693329275.4,286047001.3,N
1693329295.2,286047001.4,N
1693329315.0,286047002.0,N
1693329315.9,286047002.0,N
1693329335.8,286047001.6,N
1693329355.6,286047004.9,Y
1693329375.4,286047002.7,P
1693329395.3,286047001.9,P
1693329415.1,286047001.9,P
1693329416.0,286047001.9,Y
1693329435.8,286046998.8,P
1693329455.7,286046996.6,N
1693329475.5,286046998.8,N
1693329495.3,286046997.1,N
1693329515.2,286046997.1,N
1693329535.0,286046998.9,N
1693329535.9,286046998.9,N
1693329555.7,286046997.4,N
1693329575.6,286046996.9,N
1693329595.4,286046997.0,N
1693329615.2,286046997.5,N
1693329635.1,286046997.2,N
1693329636.0,286046997.2,N
1693329655.8,286046997.8,N
1693329675.6,286046996.8,N
1693329695.5,286046996.8,N
1693329715.3,286046998.3,N
1693329735.1,286046998.7,N
1693329755.9,286046998.7,N
1693329775.7,286046999.8,N
1693329795.6,286046999.8,N
1693329815.4,286047000.3,N
1693329835.2,286046998.2,N
1693329855.1,286046999.4,N
1693329856.0,286046999.4,N
1693329875.8,286046998.5,N
1693329895.6,286047000.1,N
1693329915.5,286046998.7,N
1693329935.3,286046999.6,N
1693329955.1,286046999.1,N
1693329975.9,286047001.0,N
1693329995.7,286047000.7,N
1693330015.5,286047001.1,N
1693330035.4,286047003.4,N
1693330055.2,286047002.2,N
1693330075.0,286046999.7,N
1693330075.9,286046999.7,N
1693330095.8,286047000.9,N
1693330115.6,286047000.8,N
1693330135.4,286047000.6,N
1693330155.3,286047000.0,N
1693330175.1,286047002.7,N
1693330195.8,286047020.8,Y
1693330215.7,286047010.6,P
1693330235.5,286047003.5,N
1693330255.3,286047000.0,N
1693330275.2,286046996.9,N
1693330295.0,286046995.3,N
1693330295.9,286046995.3,N
1693330315.7,286046995.7,N
1693330335.6,286046997.5,N
1693330355.4,286046995.2,N
1693330375.2,286046995.7,N
1693330395.1,286046995.2,N
1693330396.0,286046995.2,N
1693330415.8,286046995.6,N
1693330435.7,286046997.2,N
1693330455.5,286046997.0,N
1693330475.3,286046996.7,N
1693330495.2,286046997.1,N
1693330515.9,286046998.9,N
1693330535.7,286046999.6,N
1693330555.6,286046996.9,N
1693330575.4,286046996.5,N
1693330595.2,286046996.5,N
1693330615.1,286046999.1,N
1693330616.0,286046999.1,N
1693330635.8,286046999.9,N
1693330655.6,286046998.3,N
1693330675.5,286047001.0,N
1693330695.3,286047001.0,N
1693330715.1,286046996.5,N
1693330735.9,286046997.1,N
1693330755.7,286046998.5,N
1693330775.5,286046996.6,N
1693330795.4,286046999.1,N
1693330815.2,286046998.9,N
1693330835.0,286046998.2,N
1693330835.9,286046998.2,N
1693330855.8,286046998.2,N
1693330875.6,286047000.9,N
1693330895.4,286047000.0,N
1693330915.3,286047002.5,N
1693330935.1,286047000.2,N
1693330955.8,286047000.3,N
1693330975.7,286047000.0,N
1693330995.5,286047000.1,N
1693331015.3,286047000.4,N
1693331035.2,286047004.0,N
1693331055.0,286047004.9,N
1693331055.9,286047004.9,N
1693331075.8,286047004.0,N
1693331095.6,286047004.0,N
1693331115.4,286047003.8,N
1693331135.3,286047003.9,N
1693331155.1,286047001.4,N
1693331156.0,286047001.4,N
1693331175.8,286047004.3,N
1693331195.7,286047001.5,N
1693331215.5,286047004.2,N
1693331235.3,286047003.5,N
1693331255.2,286047003.4,N
1693331275.9,286047003.3,N
1693331295.7,286047009.1,Y
1693331315.6,286047005.9,P
1693331335.4,286047003.6,N
1693331355.2,286047003.6,N
1693331375.1,286047003.5,N
1693331376.0,286047003.5,N
1693331395.8,286047005.5,Y
1693331415.6,286047002.7,P
1693331435.5,286047002.3,P
1693331455.3,286047002.5,P
1693331475.2,286047003.9,Y
1693331495.9,286047000.3,P
1693331515.7,286047000.9,N
1693331535.6,286046998.2,N
1693331555.4,286047000.0,N
1693331575.2,286047000.4,N
1693331595.1,286047000.0,N
1693331596.0,286047000.0,N
1693331615.8,286047002.8,N
1693331635.6,286047001.9,N
1693331655.5,286047002.8,N
1693331675.3,286047002.6,N
1693331695.1,286047002.6,N
1693331715.9,286047002.4,N
1693331735.7,286047002.7,N
1693331755.5,286047013.0,Y
1693331775.4,286047007.4,P
1693331795.2,286047003.0,N
1693331815.0,286047002.4,N
1693331815.9,286047002.4,N
1693331835.8,286047000.0,N
1693331855.6,286046997.1,N
1693331875.4,286046995.2,N
1693331895.3,286046993.5,N
1693331915.1,286046992.2,N
1693331935.8,286046990.3,N
1693331955.7,286046990.1,N
1693331975.5,286046990.7,N
1693331995.4,286046990.1,N
